weather.gov     
National Weather Service

Terminal Aerodrome Forecast
NWS Homepage
This page is being discontinued on March 12, 2014.
The same data is available at this site. Please update your bookmarks.
Thank you, and we apologize for the inconvenience.
Please send an email to SR-SRH.Webmaster@noaa.gov with any concerns.


Current Version
Previous Version:    01  02  03  04  05  06  07  08  09  10  11  12  13  14  15  16  17  18  19  20  21  22  23  24  25  26  27  28  29  30  
   31  
[Printable]
450
FTUS42 KGSP 240222 AAC
TAFHKY
TAF AMD
KHKY 240222Z 2402/2424 18009KT 6SM -RA BR OVC006 WS020/17040KT
      TEMPO 2403/2407 SCT006 SCT015 BKN035
     FM241300 20009KT P6SM BKN002
     FM241600 22008G20KT P6SM SCT060
     FM241700 22012KT P6SM SCT160=


450
FTUS42 KGSP 240222 AAC
TAFHKY
TAF AMD
KHKY 240222Z 2402/2424 18009KT 6SM -RA BR OVC006 WS020/17040KT
      TEMPO 2403/2407 SCT006 SCT015 BKN035
     FM241300 20009KT P6SM BKN002
     FM241600 22008G20KT P6SM SCT060
     FM241700 22012KT P6SM SCT160=




U.S. Dept. of Commerce
NOAA National Weather Service
1325 East West Highway
Silver Spring, MD 20910
E-mail: w-nws.webmaster@noaa.gov
Page last modified: May 16, 2007
NATIONAL WEATHER SERVICE: for Safety, for Work, for Fun - FOR LIFE